Content
SEND FEEDBACK

Daily
Averages
Monthly
Summary
United Kingdom

CARDIFF, WALES


Home > Europe > United Kingdom > Wales
Elevation: 220 feet     Latitude: 51 24N     Longitude: 003 21W

WEATHER
 
SELECT A DAY
Number of Records: 274,855;   Date Range: 7/1/96 - 7/24/14
 
SHARE

PRINT THIS DATA

[ ← Previous Day ]
WEATHER ALMANAC - MAY 3, 2013
[ Next Day → ]
[ °C ]   °F
Weather ElementAverageHighLow
Temperature49.5 °F57.2 °F (1:20 pm)42.8 °F (12:50 am)
Dewpoint44.8 °F48.2 °F (7:50 am)41 °F (12:50 am)
Humidity85 %100 % (3:50 am)58 % (1:50 pm)
Barometer30.13 in30.18 in (12:50 am)30.06 in (8:50 pm)
Wind Speed11.5 mph17.3 mph (3:20 pm)
Weather ElementAverage
Visibility6.2 mi
Wind DirectionW (269.8 °)

Weather ElementTotal
Precipitation---
Heating Degree Days15 (Base 65)
Averaged from 47 records on May 3, 2013
WEATHER CONDITIONS BREAKOUT
WIND DIRECTION BREAKOUT
WEATHER BY HOUR - MAY 3, 2013
[ °C ]   °F
Local TimeTemperatureDewpointHumidityBarometerVisibilityWind DirectionWind SpeedGust SpeedPrecipitationEventsConditions
12:50 AM42.8 °F41.0 °F93 %30.18 in6.2 miWNW (300°)8.1 mph
1:20 AM42.8 °F41.0 °F93 %30.18 in6.2 miWNW (300°)5.8 mph
1:50 AM42.8 °F41.0 °F93 %30.18 in6.2 miWest (270°)6.9 mph
2:20 AM42.8 °F41.0 °F93 %30.18 inWest (280°)6.9 mphClear
2:50 AM42.8 °F41.0 °F93 %30.18 inWest (280°)8.1 mphClear
3:20 AM42.8 °F41.0 °F93 %30.18 inWest (270°)6.9 mphClear
3:50 AM42.8 °F42.8 °F100 %30.15 inWest (280°)6.9 mphClear
4:20 AM42.8 °F42.8 °F100 %30.15 inWest (280°)8.1 mphClear
4:50 AM42.8 °F42.8 °F100 %30.15 inWNW (290°)8.1 mphMostly Cloudy
5:20 AM44.6 °F44.6 °F100 %30.15 in6.2 miWNW (290°)9.2 mphMostly Cloudy
5:50 AM44.6 °F42.8 °F93 %30.15 in6.2 miWNW (290°)6.9 mphScattered Clouds
6:20 AM44.6 °F44.6 °F100 %30.15 in6.2 miWest (270°)6.9 mphScattered Clouds
6:50 AM44.6 °F44.6 °F100 %30.15 in6.2 miWest (280°)6.9 mphScattered Clouds
7:20 AM46.4 °F46.4 °F100 %30.15 in6.2 miWNW (300°)4.6 mphScattered Clouds
7:50 AM48.2 °F48.2 °F100 %30.15 in6.2 miWNW (300°)5.8 mphMostly Cloudy
8:20 AM48.2 °F48.2 °F100 %30.15 in6.2 miWest (260°)6.9 mphMostly Cloudy
8:50 AM48.2 °F48.2 °F100 %30.18 in6.2 miWest (270°)10.4 mphMostly Cloudy
9:20 AM50.0 °F48.2 °F94 %30.18 in6.2 miWest (260°)9.2 mphMostly Cloudy
9:50 AM51.8 °F48.2 °F88 %30.18 in6.2 miWest (270°)9.2 mphMostly Cloudy
10:20 AM51.8 °F48.2 °F88 %30.18 in6.2 miWest (260°)11.5 mphScattered Clouds
10:50 AM53.6 °F46.4 °F77 %30.18 in6.2 miWSW (240°)11.5 mphScattered Clouds
11:20 AM53.6 °F48.2 °F82 %30.18 in6.2 miWest (270°)12.7 mphScattered Clouds
11:50 AM55.4 °F48.2 °F77 %30.15 in6.2 miWest (260°)13.8 mphScattered Clouds
12:20 PM55.4 °F46.4 °F72 %30.15 in6.2 miWest (270°)13.8 mphMostly Cloudy
12:50 PM55.4 °F44.6 °F67 %30.15 in6.2 miWest (270°)13.8 mphMostly Cloudy
1:20 PM57.2 °F44.6 °F63 %30.15 in6.2 miWest (260°)15.0 mphMostly Cloudy
1:50 PM55.4 °F41.0 °F58 %30.15 in6.2 miWest (270°)13.8 mphMostly Cloudy
2:20 PM53.6 °F42.8 °F67 %30.15 in6.2 miWest (270°)16.1 mphMostly Cloudy
2:50 PM55.4 °F42.8 °F63 %30.12 in6.2 miWest (270°)15.0 mphMostly Cloudy
3:20 PM53.6 °F44.6 °F72 %30.12 in6.2 miWest (270°)17.3 mphMostly Cloudy
3:50 PM55.4 °F44.6 °F67 %30.12 in6.2 miWest (270°)17.3 mphScattered Clouds
4:20 PM55.4 °F44.6 °F67 %30.12 in6.2 miWest (270°)17.3 mphScattered Clouds
4:50 PM53.6 °F46.4 °F77 %30.12 in6.2 miWest (270°)17.3 mphScattered Clouds
5:20 PM51.8 °F46.4 °F82 %30.12 in6.2 miWest (270°)16.1 mphMostly Cloudy
5:50 PM51.8 °F46.4 °F82 %30.09 in6.2 miWest (270°)17.3 mphMostly Cloudy
6:20 PM51.8 °F44.6 °F76 %30.09 in6.2 miWest (270°)17.3 mphMostly Cloudy
6:50 PM51.8 °F44.6 °F76 %30.09 in6.2 miWest (260°)16.1 mphMostly Cloudy
7:20 PM50.0 °F44.6 °F82 %30.09 in6.2 miWest (260°)16.1 mphScattered Clouds
7:50 PM50.0 °F46.4 °F87 %30.09 in6.2 miWest (260°)15.0 mphScattered Clouds
8:20 PM50.0 °F46.4 °F87 %30.09 in6.2 miWest (260°)13.8 mphMostly Cloudy
8:50 PM48.2 °F44.6 °F87 %30.06 in6.2 miWest (260°)13.8 mphPartly Cloudy
9:20 PM48.2 °F44.6 °F87 %30.06 in6.2 miWest (260°)12.7 mphPartly Cloudy
9:50 PM50.0 °F44.6 °F82 %30.06 in6.2 miWSW (250°)11.5 mphPartly Cloudy
10:20 PM50.0 °F44.6 °F82 %30.06 in6.2 miWSW (250°)10.4 mphPartly Cloudy
10:50 PM50.0 °F44.6 °F82 %30.06 in6.2 miWSW (250°)11.5 mphPartly Cloudy
11:20 PM50.0 °F46.4 °F87 %30.06 in6.2 miWSW (250°)10.4 mphPartly Cloudy
11:50 PM50.0 °F46.4 °F87 %30.06 in6.2 miWSW (250°)11.5 mphPartly Cloudy
Hourly data recorded from EGFF, located miles away from Cardiff, Wales







STORIES FROM OUR PARTNERS